Location: Klein M�hlingen
(51.9472°N, 11.7453°E)
Time: 03:40:15
(UTC+00:00)

Terra - Pass Details

Date: 09 April 2020
Orbit: 701 x 703 km, 98.2° (Epoch: 04 June)

Event Time Altitude Azimuth Distance (km) Brightness Sun altitude
Exits shadow 20:29:50 43° 107° (ESE) 982 2.1 -20.5°
Maximum altitude 20:30:49 51° 69° (ENE) 884 2.1 -20.6°
Drops below altitude 10° 20:35:27 10° 354° (N) 2,185 5.1 -21.1°
Sets 20:37:46 0° 349° (N) 3,108 6.1 -21.3°
